| time (UTC) | temp C | wind direction | speed KPH | gust KPH | rain 1hr cm | rain 24hr cm | rain mn cm | humidity % | barometer mb |
| 20260507105535 | 14 | 0.0 | 0.0 | 0.00 | 0.00 | 0.00 | 85 | 1016.6 | |
| 20260507104515 | 14 | 0.0 | 0.0 | 0.00 | 0.00 | 0.00 | 85 | 1016.7 | |
| 20260507103535 | 14 | 0.0 | 0.0 | 0.00 | 0.00 | 0.00 | 85 | 1016.8 | |
| 20260507102515 | 14 | 0.0 | 0.0 | 0.00 | 0.00 | 0.00 | 85 | 1016.8 | |
| 20260507101516 | 14 | 0.0 | 0.0 | 0.00 | 0.00 | 0.00 | 85 | 1016.9 | |
| 20260507100515 | 14 | 0.0 | 0.0 | 0.00 | 0.00 | 0.00 | 85 | 1016.8 | |
| 20260507095515 | 14 | 0.0 | 0.0 | 0.00 | 0.00 | 0.00 | 84 | 1016.9 | |
| 20260507094515 | 14 | 0.0 | 0.0 | 0.00 | 0.00 | 0.00 | 84 | 1017.0 | |
| 20260507093515 | 14 | 0.0 | 0.0 | 0.00 | 0.00 | 0.00 | 84 | 1017.0 | |
| 20260507092515 | 14 | 0.0 | 0.0 | 0.00 | 0.00 | 0.00 | 84 | 1017.1 | |
| 20260507091515 | 15 | 0.0 | 0.0 | 0.00 | 0.00 | 0.00 | 84 | 1017.3 | |
| 20260507090535 | 15 | 0.0 | 0.0 | 0.00 | 0.00 | 0.00 | 84 | 1017.3 | |
| 20260507085515 | 15 | 0.0 | 0.0 | 0.00 | 0.00 | 0.00 | 84 | 1017.4 | |
| 20260507084535 | 15 | 0.0 | 0.0 | 0.00 | 0.00 | 0.00 | 83 | 1017.6 | |
| 20260507083515 | 15 | 0.0 | 0.0 | 0.00 | 0.00 | 0.00 | 83 | 1017.7 | |
| 20260507082515 | 15 | 0.0 | 0.0 | 0.00 | 0.00 | 0.00 | 83 | 1017.8 | |
| 20260507081515 | 15 | 0.0 | 0.0 | 0.00 | 0.00 | 0.00 | 83 | 1017.8 | |
| 20260507080515 | 15 | 0.0 | 0.0 | 0.00 | 0.00 | 0.00 | 83 | 1017.8 | |
| 20260507075515 | 15 | 0.0 | 0.0 | 0.00 | 0.00 | 0.00 | 83 | 1017.9 | |
| 20260507074516 | 15 | 0.0 | 0.0 | 0.00 | 0.00 | 0.00 | 82 | 1017.8 | |
| 20260507073515 | 15 | 0.0 | 0.0 | 0.00 | 0.00 | 0.00 | 82 | 1017.8 | |
| 20260507072515 | 15 | 0.0 | 0.0 | 0.00 | 0.00 | 0.00 | 82 | 1017.7 | |
| 20260507071515 | 15 | 0.0 | 0.0 | 0.00 | 0.00 | 0.00 | 82 | 1017.7 | |
| 20260507070535 | 15 | 0.0 | 0.0 | 0.00 | 0.00 | 0.00 | 82 | 1017.8 | |
| 20260507065555 | 15 | 0.0 | 0.0 | 0.00 | 0.00 | 0.00 | 82 | 1017.9 | |
| 20260507064535 | 15 | 0.0 | 0.0 | 0.00 | 0.00 | 0.00 | 82 | 1018.0 | |
| 20260507063556 | 16 | 0.0 | 0.0 | 0.00 | 0.00 | 0.00 | 81 | 1018.1 | |
| 20260507062516 | 16 | 0.0 | 0.0 | 0.00 | 0.00 | 0.00 | 81 | 1018.1 | |
| 20260507061515 | 16 | 0.0 | 0.0 | 0.00 | 0.00 | 0.00 | 81 | 1018.1 | |
| 20260507060515 | 16 | 0.0 | 0.0 | 0.00 | 0.00 | 0.00 | 80 | 1018.1 | |
| 20260507055515 | 16 | 0.0 | 0.0 | 0.00 | 0.00 | 0.00 | 80 | 1018.1 | |
| 20260507054516 | 16 | 0.0 | 0.0 | 0.00 | 0.00 | 0.00 | 80 | 1018.1 | |
| 20260507053535 | 16 | 0.0 | 0.0 | 0.00 | 0.00 | 0.00 | 80 | 1018.2 | |
| 20260507052516 | 16 | 0.0 | 0.0 | 0.00 | 0.00 | 0.00 | 79 | 1018.2 | |
| 20260507051536 | 16 | 306 | 0.0 | 4.8 | 0.00 | 0.00 | 0.00 | 79 | 1018.2 |
| 20260507050556 | 16 | 307 | 0.0 | 4.8 | 0.00 | 0.00 | 0.00 | 79 | 1018.2 |
| 20260507045516 | 16 | 307 | 0.0 | 3.2 | 0.00 | 0.00 | 0.00 | 78 | 1018.1 |
| 20260507044516 | 16 | 309 | 1.6 | 8.0 | 0.00 | 0.00 | 0.00 | 78 | 1018.1 |
| 20260507043515 | 17 | 311 | 3.2 | 6.4 | 0.00 | 0.00 | 0.00 | 77 | 1018.0 |
| 20260507042535 | 17 | 317 | 3.2 | 8.0 | 0.00 | 0.00 | 0.00 | 77 | 1018.0 |
| 20260507041515 | 17 | 318 | 0.0 | 4.8 | 0.00 | 0.00 | 0.00 | 77 | 1018.0 |
| 20260507040535 | 17 | 319 | 0.0 | 8.0 | 0.00 | 0.00 | 0.00 | 76 | 1018.0 |
| 20260507035515 | 17 | 296 | 3.2 | 14.5 | 0.00 | 0.00 | 0.00 | 76 | 1017.9 |
| 20260507034516 | 17 | 310 | 6.4 | 12.9 | 0.00 | 0.00 | 0.00 | 75 | 1017.8 |
| 20260507033515 | 17 | 323 | 6.4 | 14.5 | 0.00 | 0.00 | 0.00 | 74 | 1017.6 |
| 20260507032535 | 17 | 319 | 8.0 | 16.1 | 0.00 | 0.00 | 0.00 | 74 | 1017.5 |
| 20260507031515 | 18 | 319 | 6.4 | 12.9 | 0.00 | 0.00 | 0.00 | 74 | 1017.5 |
| 20260507030516 | 18 | 305 | 6.4 | 16.1 | 0.00 | 0.00 | 0.00 | 73 | 1017.4 |
| 20260507025515 | 18 | 308 | 4.8 | 12.9 | 0.00 | 0.00 | 0.00 | 72 | 1017.3 |
| 20260507024515 | 18 | 305 | 9.7 | 17.7 | 0.00 | 0.00 | 0.00 | 71 | 1017.2 |
| 20260507023515 | 18 | 305 | 4.8 | 14.5 | 0.00 | 0.00 | 0.00 | 69 | 1017.2 |
| 20260507022515 | 19 | 321 | 6.4 | 12.9 | 0.00 | 0.00 | 0.00 | 68 | 1017.1 |
| 20260507021515 | 19 | 325 | 6.4 | 14.5 | 0.00 | 0.00 | 0.00 | 67 | 1017.1 |
| 20260507020515 | 20 | 316 | 6.4 | 14.5 | 0.00 | 0.00 | 0.00 | 66 | 1017.1 |
| 20260507015515 | 20 | 313 | 8.0 | 17.7 | 0.00 | 0.00 | 0.00 | 64 | 1017.0 |
| 20260507014515 | 20 | 324 | 9.7 | 17.7 | 0.00 | 0.00 | 0.00 | 62 | 1017.1 |
| 20260507013515 | 20 | 313 | 9.7 | 19.3 | 0.00 | 0.00 | 0.00 | 62 | 1017.0 |
| 20260507012515 | 20 | 318 | 6.4 | 19.3 | 0.00 | 0.00 | 0.00 | 64 | 1017.0 |
| 20260507011515 | 20 | 271 | 4.8 | 16.1 | 0.00 | 0.00 | 0.00 | 67 | 1017.0 |
| 20260507010535 | 21 | 270 | 8.0 | 22.5 | 0.00 | 0.00 | 0.00 | 66 | 1017.0 |
| 20260507005515 | 21 | 258 | 6.4 | 17.7 | 0.00 | 0.00 | 0.00 | 65 | 1016.9 |
| 20260507004515 | 21 | 273 | 8.0 | 19.3 | 0.00 | 0.00 | 0.00 | 64 | 1016.9 |
| 20260507003515 | 21 | 260 | 8.0 | 19.3 | 0.00 | 0.00 | 0.00 | 64 | 1016.9 |
| 20260507002515 | 21 | 281 | 9.7 | 19.3 | 0.00 | 0.00 | 0.00 | 64 | 1016.9 |
| 20260507001535 | 21 | 289 | 11.3 | 20.9 | 0.00 | 0.00 | 0.00 | 64 | 1016.8 |
| 20260507000515 | 21 | 281 | 8.0 | 19.3 | 0.00 | 0.00 | 0.00 | 63 | 1016.7 |
| 20260506235515 | 21 | 274 | 12.9 | 22.5 | 0.00 | 0.00 | 0.00 | 63 | 1016.7 |
| 20260506234515 | 22 | 274 | 8.0 | 24.1 | 0.00 | 0.00 | 0.00 | 63 | 1016.7 |
| 20260506233515 | 22 | 277 | 8.0 | 22.5 | 0.00 | 0.00 | 0.00 | 63 | 1016.6 |
| 20260506232515 | 22 | 297 | 12.9 | 20.9 | 0.00 | 0.00 | 0.00 | 62 | 1016.7 |
| 20260506231535 | 22 | 269 | 11.3 | 22.5 | 0.00 | 0.00 | 0.00 | 62 | 1016.7 |
| 20260506230517 | 22 | 280 | 12.9 | 20.9 | 0.00 | 0.00 | 0.00 | 60 | 1016.7 |
| 20260506225537 | 23 | 296 | 14.5 | 25.7 | 0.00 | 0.00 | 0.00 | 59 | 1016.7 |
| 20260506224517 | 23 | 280 | 12.9 | 24.1 | 0.00 | 0.00 | 0.00 | 58 | 1016.8 |
| 20260506223517 | 23 | 286 | 9.7 | 20.9 | 0.00 | 0.00 | 0.00 | 58 | 1016.9 |
| 20260506221016 | 25 | 287 | 11.3 | 24.1 | 0.00 | 0.00 | 0.00 | 54 | 1017.0 |
| 20260506220016 | 25 | 288 | 9.7 | 25.7 | 0.00 | 0.00 | 0.00 | 54 | 1017.1 |
| 20260506215016 | 25 | 285 | 12.9 | 27.4 | 0.00 | 0.00 | 0.00 | 53 | 1017.2 |
| 20260506214036 | 25 | 270 | 9.7 | 20.9 | 0.00 | 0.00 | 0.00 | 53 | 1017.2 |
| 20260506213016 | 25 | 276 | 9.7 | 24.1 | 0.00 | 0.00 | 0.00 | 53 | 1017.3 |
| 20260506212015 | 25 | 271 | 14.5 | 24.1 | 0.00 | 0.00 | 0.00 | 52 | 1017.3 |
| 20260506211036 | 25 | 301 | 14.5 | 22.5 | 0.00 | 0.00 | 0.00 | 52 | 1017.4 |
| 20260506210016 | 25 | 276 | 9.7 | 22.5 | 0.00 | 0.00 | 0.00 | 53 | 1017.4 |
| 20260506205036 | 25 | 286 | 14.5 | 27.4 | 0.00 | 0.00 | 0.00 | 51 | 1017.6 |
| 20260506204017 | 26 | 288 | 9.7 | 22.5 | 0.00 | 0.00 | 0.00 | 51 | 1017.6 |
| 20260506203036 | 26 | 296 | 9.7 | 24.1 | 0.00 | 0.00 | 0.00 | 51 | 1017.8 |
| 20260506202015 | 26 | 307 | 14.5 | 25.7 | 0.00 | 0.00 | 0.00 | 51 | 1017.7 |
| 20260506201015 | 25 | 276 | 8.0 | 24.1 | 0.00 | 0.00 | 0.00 | 52 | 1017.7 |
| 20260506200035 | 25 | 280 | 12.9 | 25.7 | 0.00 | 0.00 | 0.00 | 52 | 1017.8 |
| 20260506195016 | 25 | 253 | 8.0 | 22.5 | 0.00 | 0.00 | 0.00 | 51 | 1017.9 |
| 20260506194035 | 26 | 266 | 11.3 | 24.1 | 0.00 | 0.00 | 0.00 | 50 | 1017.9 |
| 20260506193136 | 27 | 269 | 8.0 | 20.9 | 0.00 | 0.00 | 0.00 | 48 | 1018.0 |
| 20260506192015 | 26 | 287 | 6.4 | 17.7 | 0.00 | 0.00 | 0.00 | 48 | 1018.1 |
| 20260506191015 | 26 | 289 | 11.3 | 24.1 | 0.00 | 0.00 | 0.00 | 49 | 1018.2 |
| 20260506190016 | 26 | 277 | 8.0 | 19.3 | 0.00 | 0.00 | 0.00 | 48 | 1018.3 |
| 20260506185036 | 26 | 304 | 11.3 | 22.5 | 0.00 | 0.00 | 0.00 | 49 | 1018.4 |
| 20260506184016 | 26 | 293 | 8.0 | 17.7 | 0.00 | 0.00 | 0.00 | 50 | 1018.4 |
| 20260506183035 | 26 | 234 | 4.8 | 12.9 | 0.00 | 0.00 | 0.00 | 50 | 1018.5 |
| 20260506182016 | 26 | 310 | 4.8 | 17.7 | 0.00 | 0.00 | 0.00 | 50 | 1018.6 |
| 20260506181016 | 26 | 296 | 3.2 | 22.5 | 0.00 | 0.00 | 0.00 | 50 | 1018.7 |
| 20260506180015 | 25 | 324 | 6.4 | 12.9 | 0.00 | 0.00 | 0.00 | 51 | 1018.7 |
| 20260506175036 | 25 | 295 | 4.8 | 20.9 | 0.00 | 0.00 | 0.00 | 50 | 1018.8 |
| 20260506174015 | 25 | 294 | 6.4 | 14.5 | 0.00 | 0.00 | 0.00 | 52 | 1018.9 |
| 20260506173036 | 24 | 301 | 6.4 | 19.3 | 0.00 | 0.00 | 0.00 | 51 | 1019.0 |
| 20260506172015 | 24 | 316 | 3.2 | 12.9 | 0.00 | 0.00 | 0.00 | 52 | 1019.0 |
| 20260506171015 | 24 | 257 | 4.8 | 12.9 | 0.00 | 0.00 | 0.00 | 51 | 1019.0 |
| 20260506170035 | 24 | 315 | 3.2 | 14.5 | 0.00 | 0.00 | 0.00 | 53 | 1019.1 |
| 20260506165036 | 23 | 332 | 4.8 | 16.1 | 0.00 | 0.00 | 0.00 | 55 | 1019.0 |
| 20260506164015 | 22 | 319 | 6.4 | 16.1 | 0.00 | 0.00 | 0.00 | 57 | 1019.0 |
| 20260506163015 | 22 | 335 | 6.4 | 14.5 | 0.00 | 0.00 | 0.00 | 57 | 1019.1 |
| 20260506162015 | 21 | 337 | 4.8 | 9.7 | 0.00 | 0.00 | 0.00 | 61 | 1019.0 |
| 20260506161035 | 20 | 216 | 4.8 | 9.7 | 0.00 | 0.00 | 0.00 | 62 | 1019.1 |
| 20260506160035 | 19 | 332 | 3.2 | 8.0 | 0.00 | 0.00 | 0.00 | 64 | 1019.1 |
| 20260506155015 | 18 | 68 | 3.2 | 9.7 | 0.00 | 0.00 | 0.00 | 65 | 1019.1 |
| 20260506154015 | 18 | 66 | 1.6 | 11.3 | 0.00 | 0.00 | 0.00 | 66 | 1019.0 |
| 20260506153015 | 18 | 82 | 3.2 | 11.3 | 0.00 | 0.00 | 0.00 | 67 | 1019.1 |
| 20260506152015 | 17 | 54 | 3.2 | 8.0 | 0.00 | 0.00 | 0.00 | 68 | 1019.2 |
| 20260506151016 | 16 | 83 | 6.4 | 12.9 | 0.00 | 0.00 | 0.00 | 69 | 1019.2 |
| 20260506150016 | 16 | 82 | 3.2 | 8.0 | 0.00 | 0.00 | 0.00 | 70 | 1019.2 |
| 20260506145015 | 15 | 83 | 6.4 | 11.3 | 0.00 | 0.03 | 0.00 | 72 | 1019.0 |
| 20260506144016 | 15 | 79 | 6.4 | 8.0 | 0.00 | 0.03 | 0.00 | 73 | 1019.1 |
| 20260506143015 | 14 | 82 | 1.6 | 6.4 | 0.00 | 0.03 | 0.00 | 74 | 1019.1 |
| 20260506142015 | 14 | 76 | 1.6 | 6.4 | 0.00 | 0.03 | 0.00 | 74 | 1019.0 |
| 20260506141015 | 13 | 81 | 0.0 | 6.4 | 0.00 | 0.03 | 0.00 | 76 | 1019.0 |
| 20260506140015 | 13 | 77 | 1.6 | 6.4 | 0.00 | 0.05 | 0.00 | 78 | 1018.9 |
| 20260506135015 | 12 | 70 | 1.6 | 6.4 | 0.00 | 0.05 | 0.00 | 79 | 1018.8 |
| 20260506134035 | 12 | 73 | 4.8 | 8.0 | 0.00 | 0.10 | 0.00 | 78 | 1018.6 |
| 20260506133035 | 12 | 75 | 3.2 | 6.4 | 0.00 | 0.18 | 0.00 | 79 | 1018.6 |
| 20260506132015 | 12 | 66 | 3.2 | 6.4 | 0.00 | 0.18 | 0.00 | 78 | 1018.5 |
| 20260506131015 | 12 | 29 | 3.2 | 6.4 | 0.00 | 0.18 | 0.00 | 79 | 1018.4 |
| 20260506130015 | 12 | 21 | 3.2 | 6.4 | 0.00 | 0.18 | 0.00 | 78 | 1018.3 |
| 20260506125017 | 12 | 7 | 3.2 | 4.8 | 0.00 | 0.18 | 0.00 | 78 | 1018.2 |
| 20260506124017 | 12 | 357 | 1.6 | 4.8 | 0.00 | 0.18 | 0.00 | 78 | 1018.2 |
| 20260506123017 | 12 | 355 | 0.0 | 4.8 | 0.00 | 0.18 | 0.00 | 78 | 1018.2 |
| 20260506122017 | 12 | 0.0 | 0.0 | 0.00 | 0.18 | 0.00 | 78 | 1018.1 | |
| 20260506121017 | 12 | 0.0 | 0.0 | 0.00 | 0.18 | 0.00 | 78 | 1018.0 | |
| 20260506120017 | 13 | 0.0 | 0.0 | 0.00 | 0.18 | 0.00 | 78 | 1018.0 | |
| 20260506115017 | 13 | 0.0 | 0.0 | 0.00 | 0.18 | 0.00 | 78 | 1018.0 | |
| 20260506114017 | 13 | 0.0 | 0.0 | 0.00 | 0.20 | 0.00 | 77 | 1018.0 | |
| 20260506113017 | 13 | 0.0 | 0.0 | 0.00 | 0.20 | 0.00 | 77 | 1018.1 | |
| 20260506112017 | 13 | 0.0 | 1.6 | 0.00 | 0.20 | 0.00 | 77 | 1018.0 | |
| 20260506111018 | 13 | 338 | 0.0 | 3.2 | 0.00 | 0.20 | 0.00 | 77 | 1018.0 |
| 20260506110016 | 13 | 0.0 | 0.0 | 0.00 | 0.20 | 0.00 | 77 | 1018.0 |